Weather History for Lincolnton, NC

Change the Weather History Date:

Tuesday, May 13, 2014

  Actual Average (KCLT) Record (KCLT)
Temperature  
Mean Temperature 74 °F 66 °F  
Max Temperature 88 °F 78 °F 93 °F (1881)
Min Temperature 59 °F 55 °F 38 °F (1960)
Degree Days  
Heating Degree Days 0 2  
Month to date heating degree days 33  
Since 1 July heating degree days 3365  
Cooling Degree Days 8 3  
Month to date cooling degree days 32  
Year to date cooling degree days 69  
Growing Degree Days 24 (Base 50)    
Moisture  
Dew Point 62 °F    
Average Humidity 71    
Maximum Humidity 96    
Minimum Humidity 39    
Precipitation  
Precipitation 0.00 in 0.10 in 2.46 in (1919)
Month to date precipitation 1.28  
Year to date precipitation 15.06  
Snow  
Snow 0.00 in 0.00 in 0.00 in ()
Month to date snowfall 0.0  
Since 1 July snowfall 4.3  
Snow Depth -    
Sea Level Pressure  
Sea Level Pressure 30.13 in    
Wind  
Wind Speed 2 mph (SW)    
Max Wind Speed 9 mph    
Max Gust Speed -    
Visibility 10 miles    
Events      
T = Trace of Precipitation, MM = Missing Value Source: NWS Daily Summary

Daily Weather History Graph

Daily Weather History Graph

Search for Another Location

Airport:

Trip Planner

Search our weather history database for the weather conditions in past years. The results will help you decide how hot, cold, wet, or windy it might be!

Date:

Astronomy

May. 13, 2014 Rise Set
Actual Time 6:21 AM EDT 8:20 PM EDT
Civil Twilight 5:53 AM EDT 8:49 PM EDT
Nautical Twilight 5:19 AM EDT 9:23 PM EDT
Astronomical Twilight 4:42 AM EDT 10:00 PM EDT
Moon 7:23 PM EDT (5/13) 5:33 AM EDT (5/13)
Length of Visible Light 14h 55m
Length of Day
13h 59m
Waxing Gibbous, 98% of the Moon is Illuminated
May 13
Waxing Gibbous
May 14
Full
May 21
Last Quarter
May 28
New
Jun 5
First Quarter

Hourly Weather History & Observations

Time (EDT) Temp. Heat Index Dew Point Humidity Pressure Visibility Wind Dir Wind Speed Gust Speed Precip Events Conditions
12:15 AM 65.3 °F - 63.0 °F 92% 30.14 in 10.0 mi Calm Calm - N/A   Clear
12:35 AM 64.6 °F - 62.4 °F 93% 30.13 in 10.0 mi Calm Calm - N/A   Clear
12:55 AM 64.2 °F - 62.2 °F 93% 30.13 in 10.0 mi Calm Calm - N/A   Clear
1:15 AM 64.4 °F - 62.2 °F 93% 30.13 in 10.0 mi Calm Calm - N/A   Scattered Clouds
1:35 AM 63.0 °F - 61.2 °F 94% 30.13 in 10.0 mi Calm Calm - N/A   Clear
1:55 AM 63.5 °F - 62.1 °F 95% 30.13 in 10.0 mi Calm Calm - N/A   Clear
2:15 AM 63.5 °F - 61.9 °F 94% 30.13 in 7.0 mi Calm Calm - N/A   Clear
2:35 AM 63.0 °F - 61.5 °F 95% 30.13 in 7.0 mi Calm Calm - N/A   Clear
2:55 AM 62.8 °F - 61.5 °F 96% 30.13 in 7.0 mi Calm Calm - N/A   Clear
3:15 AM 62.6 °F - 61.2 °F 95% 30.13 in 10.0 mi Calm Calm - N/A   Clear
3:35 AM 62.4 °F - 61.0 °F 95% 30.13 in 10.0 mi Calm Calm - N/A   Clear
3:55 AM 61.7 °F - 60.1 °F 94% 30.13 in 7.0 mi Calm Calm - N/A   Clear
4:15 AM 62.1 °F - 60.8 °F 96% 30.13 in 10.0 mi Calm Calm - N/A   Clear
4:35 AM 61.7 °F - 60.4 °F 96% 30.14 in 10.0 mi Calm Calm - N/A   Clear
4:55 AM 60.8 °F - 59.4 °F 95% 30.14 in 7.0 mi Calm Calm - N/A   Clear
5:15 AM 61.0 °F - 59.9 °F 96% 30.15 in 10.0 mi Calm Calm - N/A   Scattered Clouds
5:35 AM 61.0 °F - 59.9 °F 96% 30.15 in 10.0 mi Calm Calm - N/A   Scattered Clouds
5:55 AM 60.8 °F - 59.4 °F 95% 30.15 in 7.0 mi Calm Calm - N/A   Clear
6:15 AM 60.8 °F - 59.5 °F 96% 30.14 in 10.0 mi Calm Calm - N/A   Clear
6:35 AM 59.9 °F - 58.6 °F 96% 30.14 in 7.0 mi Calm Calm - N/A   Clear
6:55 AM 59.9 °F - 58.6 °F 96% 30.15 in 7.0 mi Calm Calm - N/A   Clear
7:15 AM 60.3 °F - 59.2 °F 96% 30.15 in 7.0 mi Calm Calm - N/A   Clear
7:35 AM 61.0 °F - 59.9 °F 96% 30.16 in 7.0 mi Calm Calm - N/A   Clear
7:55 AM 62.6 °F - 61.0 °F 94% 30.17 in 7.0 mi Calm Calm - N/A   Clear
8:55 AM 71.6 °F - 66.2 °F 83% 30.17 in 10.0 mi WSW 4.6 mph - N/A   Clear
9:15 AM 73.9 °F - 65.3 °F 74% 30.17 in 10.0 mi WSW 4.6 mph - N/A   Clear
9:35 AM 76.1 °F - 65.5 °F 70% 30.17 in 10.0 mi WSW 4.6 mph - N/A   Clear
9:55 AM 77.2 °F - 65.7 °F 67% 30.17 in 10.0 mi WSW 5.8 mph - N/A   Clear
10:15 AM 78.1 °F - 65.5 °F 65% 30.18 in 10.0 mi WSW 5.8 mph - N/A   Scattered Clouds
11:55 AM 84.0 °F 85.8 °F 65.1 °F 53% 30.17 in 10.0 mi West 3.5 mph - N/A   Clear
12:35 PM 85.5 °F 86.8 °F 64.2 °F 49% 30.17 in 10.0 mi WSW 6.9 mph - N/A   Clear
1:15 PM 86.0 °F 86.8 °F 63.0 °F 46% 30.16 in 10.0 mi SW 6.9 mph - N/A   Clear
1:35 PM 86.9 °F 87.2 °F 61.9 °F 43% 30.16 in 10.0 mi WSW 6.9 mph - N/A   Clear
1:55 PM 86.9 °F 86.7 °F 60.6 °F 41% 30.15 in 10.0 mi SW 5.8 mph - N/A   Scattered Clouds
2:15 PM 88.7 °F 88.6 °F 61.0 °F 39% 30.14 in 10.0 mi WSW 8.1 mph - N/A   Scattered Clouds
2:35 PM 87.8 °F 87.6 °F 61.0 °F 40% 30.14 in 10.0 mi South 8.1 mph - N/A   Mostly Cloudy
2:55 PM 84.9 °F 85.2 °F 61.3 °F 45% 30.13 in 10.0 mi SW 6.9 mph - N/A   Mostly Cloudy
3:15 PM 88.2 °F 88.1 °F 61.3 °F 40% 30.13 in 10.0 mi SW 8.1 mph - N/A   Scattered Clouds
3:35 PM 87.6 °F 87.7 °F 61.5 °F 41% 30.12 in 10.0 mi SW 6.9 mph - N/A   Clear
3:55 PM 88.2 °F 88.4 °F 61.9 °F 41% 30.12 in 10.0 mi SW 4.6 mph - N/A   Scattered Clouds
4:15 PM 88.0 °F 87.9 °F 61.0 °F 40% 30.11 in 10.0 mi SSW 9.2 mph - N/A   Scattered Clouds
4:35 PM 88.3 °F 88.4 °F 61.3 °F 40% 30.10 in 10.0 mi SW 5.8 mph - N/A   Scattered Clouds
4:55 PM 88.3 °F 88.1 °F 60.3 °F 39% 30.10 in 10.0 mi South 8.1 mph - N/A   Clear
5:15 PM 86.9 °F 86.7 °F 60.3 °F 41% 30.10 in 10.0 mi SW 8.1 mph - N/A   Clear
5:35 PM 86.2 °F 86.3 °F 61.3 °F 43% 30.10 in 10.0 mi SW 4.6 mph - N/A   Clear
5:55 PM 86.9 °F 87.2 °F 61.7 °F 43% 30.10 in 10.0 mi SSW 6.9 mph - N/A   Mostly Cloudy
6:15 PM 86.0 °F 86.3 °F 61.9 °F 44% 30.10 in 10.0 mi South 8.1 mph - N/A   Scattered Clouds
6:35 PM 86.0 °F 86.6 °F 62.2 °F 45% 30.10 in 10.0 mi SW 3.5 mph - N/A   Clear
6:55 PM 84.6 °F 85.0 °F 61.9 °F 46% 30.10 in 10.0 mi SW 4.6 mph - N/A   Clear
7:15 PM 84.2 °F 84.8 °F 61.7 °F 47% 30.10 in 10.0 mi SW 3.5 mph - N/A   Clear
7:35 PM 82.8 °F 83.6 °F 62.4 °F 50% 30.10 in 10.0 mi SW 3.5 mph - N/A   Clear
7:55 PM 81.7 °F 82.7 °F 62.4 °F 52% 30.10 in 10.0 mi Calm Calm - N/A   Clear
8:15 PM 80.2 °F 81.4 °F 62.2 °F 54% 30.10 in 10.0 mi SW 3.5 mph - N/A   Clear
8:35 PM 79.2 °F - 61.7 °F 55% 30.10 in 10.0 mi Calm Calm - N/A   Clear
8:55 PM 77.4 °F - 62.4 °F 60% 30.11 in 10.0 mi Calm Calm - N/A   Clear
9:15 PM 73.4 °F - 64.4 °F 73% 30.12 in 10.0 mi Calm Calm - N/A   Clear
9:35 PM 71.6 °F - 64.4 °F 78% 30.12 in 10.0 mi Calm Calm - N/A   Clear
9:55 PM 71.2 °F - 64.6 °F 79% 30.13 in 10.0 mi Calm Calm - N/A   Clear
10:15 PM 69.6 °F - 64.6 °F 84% 30.14 in 10.0 mi Calm Calm - N/A   Clear
10:35 PM 69.8 °F - 64.4 °F 83% 30.14 in 10.0 mi Calm Calm - N/A   Clear
10:55 PM 68.9 °F - 64.4 °F 86% 30.15 in 10.0 mi Calm Calm - N/A   Clear
11:15 PM 68.0 °F - 63.5 °F 85% 30.15 in 10.0 mi Calm Calm - N/A   Clear
11:35 PM 68.0 °F - 64.4 °F 88% 30.15 in 10.0 mi Calm Calm - N/A   Clear
11:55 PM 66.7 °F - 63.7 °F 90% 30.15 in 10.0 mi Calm Calm - N/A   Clear